# Tabular Observed and Forecast Hydrograph Information
#
# Location: East Fork Carson River - Gardnerville (GRDN2)
#
# File Generation Time: 08/31/2026 at 07:34 AM PDT
# Data Interval: 1 Hour
#
# Most Recent Date & Time of Maximum Observed: 08/29/2026 at 04:00 PM PDT
# Maximum Observed Stage: 9.57 Feet
# Maximum Observed Flow: 78 cfs
#
# Earliest Date & Time of Maximum Forecast: 08/31/2026 at 08:00 AM PDT
# Maximum Forecast Stage: 9.52 Feet
# Maximum Forecast Flow: 65 cfs
#
# OBSERVED
#
# Date & Time (Local) Stage (Feet) Flow (cfs) Trend Observed Status
# ---------------------------------------------------------------------------------
08/26/2026 07 AM PDT 9.51 63 Normal
08/26/2026 08 AM PDT 9.51 63 0 Normal
08/26/2026 09 AM PDT 9.51 63 0 Normal
08/26/2026 10 AM PDT 9.51 63 0 Normal
08/26/2026 11 AM PDT 9.51 63 0 Normal
08/26/2026 12 PM PDT 9.51 63 0 Normal
08/26/2026 01 PM PDT 9.51 63 0 Normal
08/26/2026 02 PM PDT 9.51 63 0 Normal
08/26/2026 03 PM PDT 9.50 60 - Normal
08/26/2026 04 PM PDT 9.50 60 0 Normal
08/26/2026 05 PM PDT 9.49 58 - Normal
08/26/2026 06 PM PDT 9.50 60 + Normal
08/26/2026 07 PM PDT 9.49 58 - Normal
08/26/2026 08 PM PDT 9.49 58 0 Normal
08/26/2026 09 PM PDT 9.49 58 0 Normal
08/26/2026 10 PM PDT 9.49 58 0 Normal
08/26/2026 11 PM PDT 9.49 58 0 Normal
08/27/2026 12 AM PDT 9.49 58 0 Normal
08/27/2026 01 AM PDT 9.48 56 - Normal
08/27/2026 02 AM PDT 9.48 56 0 Normal
08/27/2026 03 AM PDT 9.48 56 0 Normal
08/27/2026 04 AM PDT 9.48 56 0 Normal
08/27/2026 05 AM PDT 9.49 58 + Normal
08/27/2026 06 AM PDT 9.49 58 0 Normal
08/27/2026 07 AM PDT 9.49 58 0 Normal
08/27/2026 08 AM PDT 9.50 60 + Normal
08/27/2026 09 AM PDT 9.50 60 0 Normal
08/27/2026 10 AM PDT 9.49 58 - Normal
08/27/2026 11 AM PDT 9.49 58 0 Normal
08/27/2026 12 PM PDT 9.49 58 0 Normal
08/27/2026 01 PM PDT 9.49 58 0 Normal
08/27/2026 02 PM PDT 9.49 58 0 Normal
08/27/2026 03 PM PDT 9.49 58 0 Normal
08/27/2026 04 PM PDT 9.49 58 0 Normal
08/27/2026 05 PM PDT 9.49 58 0 Normal
08/27/2026 06 PM PDT 9.49 58 0 Normal
08/27/2026 07 PM PDT 9.49 58 0 Normal
08/27/2026 08 PM PDT 9.49 58 0 Normal
08/27/2026 09 PM PDT 9.49 58 0 Normal
08/27/2026 10 PM PDT 9.48 56 - Normal
08/27/2026 11 PM PDT 9.48 56 0 Normal
08/28/2026 12 AM PDT 9.49 58 + Normal
08/28/2026 01 AM PDT 9.49 58 0 Normal
08/28/2026 02 AM PDT 9.49 58 0 Normal
08/28/2026 03 AM PDT 9.49 58 0 Normal
08/28/2026 04 AM PDT 9.49 58 0 Normal
08/28/2026 05 AM PDT 9.49 58 0 Normal
08/28/2026 06 AM PDT 9.49 58 0 Normal
08/28/2026 07 AM PDT 9.49 58 0 Normal
08/28/2026 08 AM PDT 9.49 58 0 Normal
08/28/2026 09 AM PDT 9.49 58 0 Normal
08/28/2026 10 AM PDT 9.51 63 + Normal
08/28/2026 11 AM PDT 9.52 65 + Normal
08/28/2026 12 PM PDT 9.53 68 + Normal
08/28/2026 01 PM PDT 9.53 68 0 Normal
08/28/2026 02 PM PDT 9.53 68 0 Normal
08/28/2026 03 PM PDT 9.54 70 + Normal
08/28/2026 04 PM PDT 9.54 70 0 Normal
08/28/2026 05 PM PDT 9.54 70 0 Normal
08/28/2026 06 PM PDT 9.55 73 + Normal
08/28/2026 07 PM PDT 9.55 73 0 Normal
08/28/2026 08 PM PDT 9.55 73 0 Normal
08/28/2026 09 PM PDT 9.56 76 + Normal
08/28/2026 10 PM PDT 9.55 73 - Normal
08/28/2026 11 PM PDT 9.56 76 + Normal
08/29/2026 12 AM PDT 9.56 76 0 Normal
08/29/2026 01 AM PDT 9.56 76 0 Normal
08/29/2026 02 AM PDT 9.57 78 + Normal
08/29/2026 03 AM PDT 9.57 78 0 Normal
08/29/2026 04 AM PDT 9.57 78 0 Normal
08/29/2026 05 AM PDT 9.57 78 0 Normal
08/29/2026 06 AM PDT 9.57 78 0 Normal
08/29/2026 07 AM PDT 9.56 76 - Normal
08/29/2026 08 AM PDT 9.56 76 0 Normal
08/29/2026 09 AM PDT 9.56 76 0 Normal
08/29/2026 10 AM PDT 9.57 78 + Normal
08/29/2026 11 AM PDT 9.57 78 0 Normal
08/29/2026 12 PM PDT 9.57 78 0 Normal
08/29/2026 01 PM PDT 9.57 78 0 Normal
08/29/2026 02 PM PDT 9.57 78 0 Normal
08/29/2026 03 PM PDT 9.57 78 0 Normal
08/29/2026 04 PM PDT 9.57 78 0 Normal
08/29/2026 05 PM PDT 9.56 76 - Normal
08/29/2026 06 PM PDT 9.56 76 0 Normal
08/29/2026 07 PM PDT 9.56 76 0 Normal
08/29/2026 08 PM PDT 9.56 76 0 Normal
08/29/2026 09 PM PDT 9.55 73 - Normal
08/29/2026 10 PM PDT 9.55 73 0 Normal
08/29/2026 11 PM PDT 9.55 73 0 Normal
08/30/2026 12 AM PDT 9.55 73 0 Normal
08/30/2026 01 AM PDT 9.54 70 - Normal
08/30/2026 02 AM PDT 9.54 70 0 Normal
08/30/2026 03 AM PDT 9.54 70 0 Normal
08/30/2026 04 AM PDT 9.54 70 0 Normal
08/30/2026 05 AM PDT 9.54 70 0 Normal
08/30/2026 06 AM PDT 9.54 70 0 Normal
08/30/2026 07 AM PDT 9.54 70 0 Normal
08/30/2026 08 AM PDT 9.53 68 - Normal
08/30/2026 09 AM PDT 9.52 65 - Normal
08/30/2026 10 AM PDT 9.52 65 0 Normal
08/30/2026 11 AM PDT 9.52 65 0 Normal
08/30/2026 12 PM PDT 9.52 65 0 Normal
08/30/2026 01 PM PDT 9.52 65 0 Normal
08/30/2026 02 PM PDT 9.52 65 0 Normal
08/30/2026 03 PM PDT 9.52 65 0 Normal
08/30/2026 04 PM PDT 9.52 65 0 Normal
08/30/2026 05 PM PDT 9.52 65 0 Normal
08/30/2026 06 PM PDT 9.52 65 0 Normal
08/30/2026 07 PM PDT 9.51 63 - Normal
08/30/2026 08 PM PDT 9.51 63 0 Normal
08/30/2026 09 PM PDT 9.51 63 0 Normal
08/30/2026 10 PM PDT 9.51 63 0 Normal
08/30/2026 11 PM PDT 9.51 63 0 Normal
08/31/2026 12 AM PDT 9.51 63 0 Normal
08/31/2026 01 AM PDT 9.51 63 0 Normal
08/31/2026 02 AM PDT 9.51 63 0 Normal
08/31/2026 03 AM PDT 9.52 65 + Normal
08/31/2026 04 AM PDT 9.52 65 0 Normal
08/31/2026 05 AM PDT 9.52 65 0 Normal
08/31/2026 06 AM PDT 9.52 65 0 Normal
08/31/2026 07 AM PDT 9.52 65 0 Normal
#
# FORECAST
#
# Date & Time (Local) Stage (Feet) Flow (cfs) Trend Forecast Status
# ---------------------------------------------------------------------------------
08/31/2026 08 AM PDT 9.52 65 Normal
08/31/2026 09 AM PDT 9.52 65 0 Normal
08/31/2026 10 AM PDT 9.52 65 0 Normal
08/31/2026 11 AM PDT 9.52 65 0 Normal
08/31/2026 12 PM PDT 9.52 65 0 Normal
08/31/2026 01 PM PDT 9.52 65 0 Normal
08/31/2026 02 PM PDT 9.52 65 0 Normal
08/31/2026 03 PM PDT 9.52 65 0 Normal
08/31/2026 04 PM PDT 9.51 63 - Normal
08/31/2026 05 PM PDT 9.51 63 0 Normal
08/31/2026 06 PM PDT 9.51 63 0 Normal
08/31/2026 07 PM PDT 9.51 63 0 Normal
08/31/2026 08 PM PDT 9.51 63 0 Normal
08/31/2026 09 PM PDT 9.51 63 0 Normal
08/31/2026 10 PM PDT 9.51 63 0 Normal
08/31/2026 11 PM PDT 9.51 63 0 Normal
09/01/2026 12 AM PDT 9.51 63 0 Normal
09/01/2026 01 AM PDT 9.51 63 0 Normal
09/01/2026 02 AM PDT 9.51 63 0 Normal
09/01/2026 03 AM PDT 9.51 63 0 Normal
09/01/2026 04 AM PDT 9.51 63 0 Normal
09/01/2026 05 AM PDT 9.51 63 0 Normal
09/01/2026 06 AM PDT 9.51 63 0 Normal
09/01/2026 07 AM PDT 9.51 63 0 Normal
09/01/2026 08 AM PDT 9.50 60 - Normal
09/01/2026 09 AM PDT 9.50 60 0 Normal
09/01/2026 10 AM PDT 9.50 60 0 Normal
09/01/2026 11 AM PDT 9.50 60 0 Normal
09/01/2026 12 PM PDT 9.50 60 0 Normal
09/01/2026 01 PM PDT 9.50 60 0 Normal
09/01/2026 02 PM PDT 9.50 60 0 Normal
09/01/2026 03 PM PDT 9.50 60 0 Normal
09/01/2026 04 PM PDT 9.50 60 0 Normal
09/01/2026 05 PM PDT 9.50 60 0 Normal
09/01/2026 06 PM PDT 9.50 60 0 Normal
09/01/2026 07 PM PDT 9.50 60 0 Normal
09/01/2026 08 PM PDT 9.50 60 0 Normal
09/01/2026 09 PM PDT 9.50 60 0 Normal
09/01/2026 10 PM PDT 9.50 60 0 Normal
09/01/2026 11 PM PDT 9.49 58 - Normal
09/02/2026 12 AM PDT 9.49 58 0 Normal
09/02/2026 01 AM PDT 9.49 58 0 Normal
09/02/2026 02 AM PDT 9.49 58 0 Normal
09/02/2026 03 AM PDT 9.49 58 0 Normal
09/02/2026 04 AM PDT 9.49 58 0 Normal
09/02/2026 05 AM PDT 9.49 58 0 Normal
09/02/2026 06 AM PDT 9.49 58 0 Normal
09/02/2026 07 AM PDT 9.49 58 0 Normal
09/02/2026 08 AM PDT 9.49 58 0 Normal
09/02/2026 09 AM PDT 9.49 58 0 Normal
09/02/2026 10 AM PDT 9.49 58 0 Normal
09/02/2026 11 AM PDT 9.49 58 0 Normal
09/02/2026 12 PM PDT 9.49 58 0 Normal
09/02/2026 01 PM PDT 9.49 58 0 Normal
09/02/2026 02 PM PDT 9.49 58 0 Normal
09/02/2026 03 PM PDT 9.48 56 - Normal
09/02/2026 04 PM PDT 9.48 56 0 Normal
09/02/2026 05 PM PDT 9.48 56 0 Normal
09/02/2026 06 PM PDT 9.48 56 0 Normal
09/02/2026 07 PM PDT 9.48 56 0 Normal
09/02/2026 08 PM PDT 9.48 56 0 Normal
09/02/2026 09 PM PDT 9.48 56 0 Normal
09/02/2026 10 PM PDT 9.48 56 0 Normal
09/02/2026 11 PM PDT 9.48 56 0 Normal
09/03/2026 12 AM PDT 9.48 56 0 Normal
09/03/2026 01 AM PDT 9.48 56 0 Normal
09/03/2026 02 AM PDT 9.48 56 0 Normal
09/03/2026 03 AM PDT 9.48 56 0 Normal
09/03/2026 04 AM PDT 9.48 56 0 Normal
09/03/2026 05 AM PDT 9.48 56 0 Normal
09/03/2026 06 AM PDT 9.48 56 0 Normal
09/03/2026 07 AM PDT 9.47 53 - Normal
09/03/2026 08 AM PDT 9.47 53 0 Normal
09/03/2026 09 AM PDT 9.47 53 0 Normal
09/03/2026 10 AM PDT 9.47 53 0 Normal
09/03/2026 11 AM PDT 9.47 53 0 Normal
09/03/2026 12 PM PDT 9.47 53 0 Normal
09/03/2026 01 PM PDT 9.47 53 0 Normal
09/03/2026 02 PM PDT 9.47 53 0 Normal
09/03/2026 03 PM PDT 9.47 53 0 Normal
09/03/2026 04 PM PDT 9.47 53 0 Normal
09/03/2026 05 PM PDT 9.47 53 0 Normal
09/03/2026 06 PM PDT 9.47 53 0 Normal
09/03/2026 07 PM PDT 9.47 53 0 Normal
09/03/2026 08 PM PDT 9.47 53 0 Normal
09/03/2026 09 PM PDT 9.47 53 0 Normal
09/03/2026 10 PM PDT 9.47 53 0 Normal
09/03/2026 11 PM PDT 9.46 51 - Normal
09/04/2026 12 AM PDT 9.46 51 0 Normal
09/04/2026 01 AM PDT 9.46 51 0 Normal
09/04/2026 02 AM PDT 9.46 51 0 Normal
09/04/2026 03 AM PDT 9.46 51 0 Normal
09/04/2026 04 AM PDT 9.46 51 0 Normal
09/04/2026 05 AM PDT 9.46 51 0 Normal
09/04/2026 06 AM PDT 9.46 51 0 Normal
09/04/2026 07 AM PDT 9.46 51 0 Normal
09/04/2026 08 AM PDT 9.46 51 0 Normal
09/04/2026 09 AM PDT 9.46 51 0 Normal
09/04/2026 10 AM PDT 9.46 51 0 Normal
09/04/2026 11 AM PDT 9.46 51 0 Normal
09/04/2026 12 PM PDT 9.46 51 0 Normal
09/04/2026 01 PM PDT 9.46 51 0 Normal
09/04/2026 02 PM PDT 9.46 51 0 Normal
09/04/2026 03 PM PDT 9.46 51 0 Normal
09/04/2026 04 PM PDT 9.46 51 0 Normal
09/04/2026 05 PM PDT 9.46 51 0 Normal
09/04/2026 06 PM PDT 9.46 51 0 Normal
09/04/2026 07 PM PDT 9.46 51 0 Normal
09/04/2026 08 PM PDT 9.46 51 0 Normal
09/04/2026 09 PM PDT 9.46 51 0 Normal
09/04/2026 10 PM PDT 9.46 51 0 Normal
09/04/2026 11 PM PDT 9.46 51 0 Normal
09/05/2026 12 AM PDT 9.46 51 0 Normal
09/05/2026 01 AM PDT 9.46 51 0 Normal
09/05/2026 02 AM PDT 9.46 51 0 Normal
09/05/2026 03 AM PDT 9.46 51 0 Normal
09/05/2026 04 AM PDT 9.46 51 0 Normal
09/05/2026 05 AM PDT 9.46 51 0 Normal
#
# NOTE 1: Stages are rounded to the nearest hundredth (.01) of a foot.
# NOTE 2: Flows are rounded to the nearest (1) cfs.
# NOTE 3: Trends are determined using hourly change in unrounded stage and flow.
# NOTE 4: Maximum Values are determined using unrounded stage and flow.
|